Beatrice, NE

10:28 AM CST on February 23, 2017 (GMT -0600)
Beatrice Municipal

Weather History for KBIE - February, 2014

Change the Weather History Date:

Saturday, February 8, 2014

  Actual Average Record
Temperature  
Mean Temperature 20 °F -  
Max Temperature 27 °F 35 °F 69 °F (1999)
Min Temperature 12 °F 14 °F -17 °F (1971)
Degree Days  
Heating Degree Days 46    
Moisture  
Dew Point 15 °F    
Average Humidity 79    
Maximum Humidity 88    
Minimum Humidity 67    
Precipitation  
Precipitation 0.00 in - - ()
Sea Level Pressure  
Sea Level Pressure 30.07 in    
Wind  
Wind Speed 9 mph (SW)    
Max Wind Speed 15 mph    
Max Gust Speed 17 mph    
Visibility 8 miles    
Events Snow    
Averages and records for this station are not official NWS values.
T = Trace of Precipitation, MM = Missing Value Source: NWS Daily Summary

Daily Weather History Graph

Daily Weather History Graph

Search for Another Location

Airport or City:

Trip Planner

Search our weather history database for the weather conditions in past years. The results will help you decide how hot, cold, wet, or windy it might be!

Date:

Astronomy

Feb. 08, 2014 Rise Set
Actual Time 7:28 AM CST 5:54 PM CST
Civil Twilight 7:00 AM CST 6:22 PM CST
Nautical Twilight 6:28 AM CST 6:54 PM CST
Astronomical Twilight 5:56 AM CST 7:26 PM CST
Moon 12:48 PM CST (2/8) 2:42 AM CST (2/8)
Length of Visible Light 11h 22m
Length of Day
10h 25m
Waxing Gibbous, 69% of the Moon is Illuminated
Feb 8
Waxing Gibbous
Feb 14
Full
Feb 22
Last Quarter
Mar 1
New
Mar 8
First Quarter

Hourly Weather History & Observations

Time (CST) Temp. Windchill Dew Point Humidity Pressure Visibility Wind Dir Wind Speed Gust Speed Precip Events Conditions
12:15 AM 12.6 °F 0.2 °F 7.7 °F 81% 30.13 in 10.0 mi South 9.2 mph - N/A Snow Light Snow
12:35 AM 12.7 °F 0.4 °F 7.7 °F 80% 30.13 in 7.0 mi South 9.2 mph - N/A Snow Light Snow
12:55 AM 12.7 °F 1.4 °F 8.1 °F 82% 30.11 in 10.0 mi South 8.1 mph - N/A Snow Light Snow
1:15 AM 12.7 °F -0.4 °F 8.2 °F 82% 30.10 in 10.0 mi South 10.4 mph - N/A Snow Light Snow
1:35 AM 12.9 °F -0.2 °F 8.4 °F 82% 30.08 in 7.0 mi South 10.4 mph - N/A Snow Light Snow
1:55 AM 13.1 °F 1.8 °F 8.6 °F 82% 30.10 in 7.0 mi South 8.1 mph - N/A Snow Light Snow
2:15 AM 13.1 °F 0.9 °F 8.6 °F 82% 30.08 in 10.0 mi South 9.2 mph - N/A Snow Light Snow
2:35 AM 13.5 °F 0.5 °F 9.1 °F 83% 30.08 in 10.0 mi South 10.4 mph - N/A Snow Light Snow
2:55 AM 13.6 °F 4.6 °F 9.5 °F 84% 30.08 in 10.0 mi South 5.8 mph - N/A Snow Light Snow
3:15 AM 13.6 °F 2.5 °F 9.5 °F 84% 30.07 in 10.0 mi South 8.1 mph - N/A Snow Light Snow
3:35 AM 13.6 °F 1.6 °F 9.7 °F 84% 30.06 in 7.0 mi South 9.2 mph - N/A Snow Light Snow
3:55 AM 14.0 °F 2.0 °F 10.0 °F 84% 30.06 in 10.0 mi South 9.2 mph - N/A Snow Light Snow
4:15 AM 14.2 °F 1.4 °F 10.2 °F 84% 30.05 in 10.0 mi South 10.4 mph - N/A   Overcast
4:35 AM 14.7 °F 2.9 °F 10.8 °F 84% 30.05 in 10.0 mi South 9.2 mph - N/A   Overcast
4:55 AM 14.9 °F 4.0 °F 11.1 °F 85% 30.07 in 10.0 mi South 8.1 mph - N/A   Overcast
5:15 AM 15.4 °F 3.0 °F 11.5 °F 84% 30.06 in 10.0 mi South 10.4 mph - N/A   Overcast
5:35 AM 15.6 °F 2.5 °F 11.8 °F 85% 30.04 in 10.0 mi South 11.5 mph - N/A   Overcast
5:55 AM 15.8 °F 2.1 °F 12.2 °F 86% 30.00 in 10.0 mi South 12.7 mph - N/A   Overcast
6:15 AM 16.5 °F 1.8 °F 12.7 °F 85% 30.02 in 10.0 mi South 15.0 mph - N/A   Overcast
6:35 AM 16.7 °F 2.6 °F 13.1 °F 86% 30.00 in 10.0 mi South 13.8 mph - N/A   Overcast
6:55 AM 17.1 °F 5.0 °F 13.5 °F 86% 30.02 in 10.0 mi SSW 10.4 mph - N/A   Overcast
7:15 AM 17.4 °F 6.2 °F 14.0 °F 86% 30.03 in 7.0 mi SSW 9.2 mph - N/A   Overcast
7:35 AM 17.6 °F 8.2 °F 14.0 °F 86% 30.03 in 7.0 mi SSW 6.9 mph - N/A   Overcast
7:55 AM 19.0 °F 6.8 °F 15.6 °F 87% 30.04 in 5.0 mi SW 11.5 mph - N/A   Overcast
8:15 AM 19.0 °F 8.2 °F 15.6 °F 87% 30.05 in 5.0 mi SW 9.2 mph - N/A   Overcast
8:35 AM 19.0 °F 6.8 °F 15.8 °F 87% 30.05 in 5.0 mi SW 11.5 mph - N/A   Overcast
8:55 AM 19.2 °F 7.0 °F 15.8 °F 87% 30.05 in 5.0 mi SW 11.5 mph - N/A   Overcast
9:15 AM 19.4 °F 7.9 °F 16.3 °F 88% 30.06 in 5.0 mi SW 10.4 mph - N/A   Overcast
9:35 AM 19.9 °F 8.6 °F 16.7 °F 87% 30.06 in 4.0 mi SW 10.4 mph - N/A   Overcast
9:55 AM 20.3 °F 8.3 °F 16.9 °F 87% 30.06 in 4.0 mi SW 11.5 mph - N/A   Overcast
10:15 AM 21.2 °F 10.1 °F 17.6 °F 86% 30.05 in 4.0 mi WSW 10.4 mph - N/A   Overcast
10:35 AM 22.1 °F 11.3 °F 18.1 °F 85% 30.05 in 4.0 mi WSW 10.4 mph - N/A   Overcast
10:55 AM 22.8 °F 11.5 °F 18.1 °F 82% 30.05 in 5.0 mi WSW 11.5 mph 17.3 mph N/A   Haze
11:15 AM 23.5 °F 11.8 °F 18.3 °F 80% 30.06 in 5.0 mi WSW 12.7 mph - N/A   Haze
11:35 AM 23.9 °F 12.9 °F 18.3 °F 79% 30.05 in 5.0 mi WSW 11.5 mph - N/A   Haze
11:55 AM 24.3 °F 12.7 °F 18.5 °F 79% 30.04 in 5.0 mi SW 12.7 mph - N/A   Haze
12:15 PM 24.6 °F 13.8 °F 18.7 °F 78% 30.04 in 5.0 mi WSW 11.5 mph - N/A   Haze
12:35 PM 24.8 °F 13.4 °F 18.9 °F 78% 30.03 in 7.0 mi SW 12.7 mph - N/A   Overcast
12:55 PM 25.2 °F 15.7 °F 18.7 °F 76% 30.02 in 5.0 mi SW 9.2 mph - N/A   Haze
1:15 PM 25.5 °F 16.2 °F 18.5 °F 75% 30.01 in 7.0 mi SW 9.2 mph - N/A   Overcast
1:35 PM 25.5 °F 16.2 °F 18.9 °F 76% 30.01 in 5.0 mi SW 9.2 mph - N/A   Haze
1:55 PM 26.1 °F 16.8 °F 19.2 °F 75% 30.01 in 7.0 mi WSW 9.2 mph - N/A   Overcast
2:15 PM 26.2 °F 17.1 °F 18.7 °F 73% 30.02 in 7.0 mi West 9.2 mph - N/A   Overcast
2:35 PM 26.6 °F 19.1 °F 18.9 °F 73% 30.01 in 7.0 mi West 6.9 mph - N/A   Overcast
2:55 PM 26.2 °F 18.6 °F 18.9 °F 74% 30.01 in 7.0 mi WNW 6.9 mph - N/A   Overcast
3:15 PM 27.0 °F 19.5 °F 19.2 °F 73% 30.03 in 7.0 mi WSW 6.9 mph - N/A   Overcast
3:35 PM 27.1 °F 18.9 °F 19.4 °F 73% 30.03 in 7.0 mi WSW 8.1 mph - N/A   Overcast
3:55 PM 27.1 °F 19.7 °F 19.4 °F 73% 30.02 in 7.0 mi WSW 6.9 mph - N/A   Scattered Clouds
4:15 PM 27.3 °F 22.0 °F 19.4 °F 72% 30.02 in 7.0 mi WSW 4.6 mph - N/A   Clear
4:35 PM 27.7 °F 21.3 °F 20.1 °F 73% 30.03 in 7.0 mi West 5.8 mph - N/A   Clear
4:55 PM 27.5 °F 23.6 °F 20.1 °F 74% 30.03 in 7.0 mi WSW 3.5 mph - N/A   Scattered Clouds
5:15 PM 27.5 °F 22.2 °F 20.3 °F 74% 30.04 in 7.0 mi West 4.6 mph - N/A   Mostly Cloudy
5:35 PM 27.1 °F 18.9 °F 17.4 °F 67% 30.06 in 10.0 mi NNW 8.1 mph - N/A   Overcast
5:55 PM 26.4 °F 16.6 °F 17.4 °F 69% 30.08 in 10.0 mi NNW 10.4 mph - N/A   Scattered Clouds
6:15 PM 25.2 °F 17.3 °F 16.9 °F 71% 30.08 in 10.0 mi North 6.9 mph - N/A   Scattered Clouds
6:35 PM 24.8 °F 16.1 °F 16.5 °F 71% 30.08 in 10.0 mi North 8.1 mph - N/A   Scattered Clouds
6:55 PM 24.6 °F 17.7 °F 16.5 °F 71% 30.09 in 10.0 mi North 5.8 mph - N/A   Scattered Clouds
7:15 PM 25.2 °F 17.3 °F 16.0 °F 68% 30.10 in 10.0 mi North 6.9 mph - N/A   Mostly Cloudy
7:35 PM 24.8 °F 15.3 °F 16.3 °F 70% 30.11 in 10.0 mi North 9.2 mph - N/A   Overcast
7:55 PM 24.8 °F 14.6 °F 15.4 °F 68% 30.10 in 10.0 mi North 10.4 mph - N/A   Overcast
8:15 PM 23.9 °F 14.2 °F 14.9 °F 69% 30.10 in 10.0 mi NNE 9.2 mph - N/A   Mostly Cloudy
8:35 PM 23.7 °F 14.7 °F 14.7 °F 69% 30.12 in 10.0 mi NNE 8.1 mph - N/A   Overcast
8:55 PM 23.4 °F 18.9 °F 14.9 °F 70% 30.11 in 10.0 mi NE 3.5 mph - N/A   Overcast
9:15 PM 23.4 °F 16.2 °F 14.4 °F 68% 30.12 in 10.0 mi NNE 5.8 mph - N/A   Overcast
9:35 PM 23.0 °F 14.7 °F 14.7 °F 71% 30.13 in 10.0 mi NNE 6.9 mph - N/A   Overcast
9:55 PM 22.5 °F 13.2 °F 14.5 °F 72% 30.14 in 10.0 mi North 8.1 mph - N/A   Mostly Cloudy
10:15 PM 22.5 °F 16.3 °F 15.4 °F 74% 30.14 in 10.0 mi NE 4.6 mph - N/A   Overcast
10:35 PM 22.1 °F 14.7 °F 15.6 °F 76% 30.14 in 10.0 mi NNE 5.8 mph - N/A   Overcast
10:55 PM 21.2 °F 11.7 °F 15.3 °F 78% 30.18 in 10.0 mi North 8.1 mph - N/A   Scattered Clouds
11:15 PM 21.6 °F 12.1 °F 16.2 °F 80% 30.20 in 10.0 mi North 8.1 mph - N/A   Mostly Cloudy
11:35 PM 21.4 °F 11.1 °F 16.7 °F 82% 30.20 in 10.0 mi North 9.2 mph - N/A   Overcast
11:55 PM 21.9 °F 12.5 °F 17.4 °F 83% 30.21 in 7.0 mi North 8.1 mph - N/A   Overcast